Salina, KS

9:50 PM CST on February 24, 2017 (GMT -0600)
Salina Municipal

Weather History for KSLN - March, 2015

Change the Weather History Date:

Saturday, March 7, 2015

  Actual Average Record
Temperature  
Mean Temperature 52 °F 42 °F  
Max Temperature 74 °F 54 °F 78 °F (2016)
Min Temperature 30 °F 31 °F -4 °F (1920)
Degree Days  
Heating Degree Days 13 23  
Month to date heating degree days 206 166  
Since 1 July heating degree days 4035 4007  
Cooling Degree Days 0 0  
Month to date cooling degree days 0 0  
Year to date cooling degree days 0 0  
Growing Degree Days 2 (Base 50)    
Moisture  
Dew Point 24 °F    
Average Humidity 42    
Maximum Humidity 70    
Minimum Humidity 13    
Precipitation  
Precipitation 0.00 in 0.07 in 0.43 in (1969)
Month to date precipitation 0.00 0.43  
Year to date precipitation 1.44 2.23  
Sea Level Pressure  
Sea Level Pressure 30.20 in    
Wind  
Wind Speed 6 mph (SW)    
Max Wind Speed 14 mph    
Max Gust Speed 17 mph    
Visibility 10 miles    
Events      
T = Trace of Precipitation, MM = Missing Value Source: NWS Daily Summary

Daily Weather History Graph

Daily Weather History Graph

Search for Another Location

Airport or City:

Trip Planner

Search our weather history database for the weather conditions in past years. The results will help you decide how hot, cold, wet, or windy it might be!

Date:

Astronomy

Mar. 07, 2015 Rise Set
Actual Time 6:54 AM CST 6:29 PM CST
Civil Twilight 6:27 AM CST 6:56 PM CST
Nautical Twilight 5:57 AM CST 7:26 PM CST
Astronomical Twilight 5:26 AM CST 7:57 PM CST
Moon 8:31 PM CST (3/7) 7:43 AM CST (3/7)
Length of Visible Light 12h 28m
Length of Day
11h 35m
Waning Gibbous, 96% of the Moon is Illuminated
Mar 7
Waning Gibbous
Mar 13
Last Quarter
Mar 20
New
Mar 27
First Quarter
Apr 4
Full

Hourly Weather History & Observations

Time (CST) Temp. Windchill Dew Point Humidity Pressure Visibility Wind Dir Wind Speed Gust Speed Precip Events Conditions
12:53 AM 36.0 °F 30.3 °F 27.0 °F 70% 30.22 in 10.0 mi South 6.9 mph - N/A   Clear
1:53 AM 36.0 °F - 26.1 °F 67% 30.23 in 10.0 mi Calm Calm - N/A   Clear
2:53 AM 37.9 °F - 26.1 °F 62% 30.22 in 10.0 mi Calm Calm - N/A   Clear
3:53 AM 37.0 °F 32.4 °F 25.0 °F 62% 30.22 in 10.0 mi West 5.8 mph - N/A   Clear
4:53 AM 39.0 °F 33.4 °F 24.1 °F 55% 30.23 in 10.0 mi West 8.1 mph - N/A   Clear
5:53 AM 34.0 °F 28.0 °F 21.9 °F 61% 30.25 in 10.0 mi SSW 6.9 mph - N/A   Clear
6:53 AM 30.9 °F 24.3 °F 21.0 °F 67% 30.27 in 10.0 mi SSW 6.9 mph - N/A   Clear
7:53 AM 35.1 °F 32.2 °F 26.1 °F 70% 30.29 in 10.0 mi SSE 3.5 mph - N/A   Clear
8:53 AM 46.0 °F 44.8 °F 24.1 °F 42% 30.29 in 10.0 mi West 3.5 mph - N/A   Clear
9:53 AM 55.9 °F - 24.1 °F 29% 30.28 in 10.0 mi NW 11.5 mph - N/A   Clear
10:53 AM 61.0 °F - 24.1 °F 24% 30.27 in 10.0 mi NW 6.9 mph - N/A   Clear
11:53 AM 66.0 °F - 25.0 °F 21% 30.26 in 10.0 mi Variable 4.6 mph - N/A   Clear
12:53 PM 70.0 °F - 24.1 °F 18% 30.23 in 10.0 mi NNW 5.8 mph - N/A   Clear
1:53 PM 72.0 °F - 21.9 °F 15% 30.19 in 10.0 mi West 9.2 mph - N/A   Clear
2:53 PM 73.0 °F - 21.0 °F 14% 30.16 in 10.0 mi West 9.2 mph - N/A   Clear
3:53 PM 73.4 °F - 21.2 °F 14% 30.15 in 10.0 mi NNW 9.2 mph - N/A   Clear
4:53 PM 73.0 °F - 19.9 °F 14% 30.13 in 10.0 mi Calm Calm - N/A   Clear
5:53 PM 69.1 °F - 21.9 °F 17% 30.13 in 10.0 mi Calm Calm - N/A   Clear
6:53 PM 57.9 °F - 21.0 °F 24% 30.14 in 10.0 mi ESE 3.5 mph - N/A   Clear
7:53 PM 53.1 °F - 23.0 °F 31% 30.14 in 10.0 mi SSE 11.5 mph - N/A   Clear
8:53 PM 48.9 °F - 27.0 °F 43% 30.13 in 10.0 mi South 4.6 mph - N/A   Clear
9:53 PM 46.9 °F - 28.0 °F 48% 30.12 in 10.0 mi South 8.1 mph - N/A   Clear
10:53 PM 46.9 °F - 30.0 °F 52% 30.12 in 10.0 mi South 10.4 mph - N/A   Clear
11:53 PM 44.1 °F 40.1 °F 30.9 °F 60% 30.11 in 10.0 mi South 6.9 mph - N/A   Clear